Location: Quaker Farms
(41.4276°N, 73.1557°W)
Time: 01:55:01
(UTC+00:00)

Altair - Pass Details

Date: 19 June 2021
Orbit: 1501 x 1682 km, 47.2° (Epoch: 23 July)

Event Time Altitude Azimuth Distance (km) Brightness Sun altitude
Rises 02:19:35 0° 293° (WNW) 4,881 11.2 -15.9°
Reaches altitude 10° 02:23:31 10° 280° (W) 3,912 10.3 -16.4°
Maximum altitude 02:30:49 24° 233° (SW) 2,995 9.0 -17.2°
Enters shadow 02:37:41 11° 188° (S) 3,821 9.1 -17.9°
Drops below altitude 10° 02:38:13 10° 185° (S) 3,934 - -17.9°
Sets 02:42:14 0° 172° (S) 4,913 - -18.3°
